Main page
METAR-TAF:

METAR-TAF

Airports :

RAF Boulmer

Boulmer, England

latitude: 55-25-19N, longitude: 1-36-12W, elevation: 24 m

Current weather observation

The report was made 56 minutes ago, at 12:50 UTC
Wind 5 kt from the Northeast
Temperature 10°C
Humidity 87%
Pressure 1026 hPa
Visibility 10 km or more

METAR: EGQM 241250Z AUTO 04005KT 9999 OVC005/// 10/08 Q1026

Time: 14:46 (13:46 UTC)


TAF: missing

Weather observations and forecasts of more than 4000 airports (METAR and TAF reports).

The available stations are represented by yellow and red dots on the map.

Hover mouse over dot to see the name of the station.

Then click to see weather observations and forecasts.

To change the map : click on the green buttons with a black cross to zoom in, on the green button with a dash to zoom out, or on the green arrows for adjacent maps.


METAR-TAF: